Tracking 19794 objects as of 23-Jul-2019
HD Live streaming from Space Station
objects crossing your sky now

PW-SAT2

Track PW-SAT2 now!
10-day predictions


NORAD ID: 43814
Int'l Code: 2018-099BJ
Perigee: 565.9 km
Apogee: 580.4 km
Inclination: 97.8 °
Period: 96.0 minutes
Semi major axis: 6944 km
RCS: Unknown
Launch date: December 3, 2018
Source: POLAND (POL)
Launch site: AIR FORCE WESTERN TEST RANGE (AFWTR)
aabbcc
Your satellite tracking list
Your tracking list is empty




NASA's NSSDC Master Catalog

Two Line Element Set (TLE):
1 43814U 18099BJ  19203.78208742 +.00008190 +00000-0 +65752-3 0  9996
2 43814 097.7773 276.6657 0010468 188.6093 171.4933 15.00278686033967
Source of the keplerian elements: AFSPC